Regional Weather Roundup
Issued by NWS Northern Indiana

Home | Current Version | Previous Version | Text Only | Print | Product List | Glossary Off
Versions: 1 2 3 4 5 6 7 8 9 10 11 12 13 14 15 16 17 18 19 20 21 22 23 24 25 26 27 28 29 30 31 32 33 34 35 36 37 38 39 40 41 42 43 44 45 46 47 48 49 50

000
ASUS43 KIWX 292110
RWRIWX

KIWX WEATHER ROUNDUP
NATIONAL WEATHER SERVICE NORTHERN INDIANA
500 PM EDT SAT AUG 29 2015

NOTE: "FAIR" INDICATES FEW OR NO CLOUDS BELOW 12,000 FEET WITH NO
SIGNIFICANT WEATHER AND/OR OBSTRUCTIONS TO VISIBILITY.

* THESE STATIONS ARE NOT UNDER NWS QUALITY CONTROL. THEY ALSO MAY NOT
  REPORT WEATHER SUCH AS PRECIPITATION OR FOG.

INZ001>027-292200-
NORTHERN INDIANA

CITY           SKY/WX    TMP DP  RH WIND       PRES   REMARKS
GARY*          CLOUDY    75  64  69 S7        30.00F
VALPARAISO     CLOUDY    74  64  71 S6        30.02F
MICHIGAN CITY* CLOUDY    70  68  94 SE3       30.02F
LAPORTE*       CLOUDY    73  73 100 E6        30.03F
KNOX*          CLOUDY    70  68  94 SE5       30.01F
SOUTH BEND     LGT RAIN  69  67  93 E3        30.05S
ELKHART*       CLOUDY    70  68  94 CALM      30.06S FOG
GOSHEN         LGT RAIN  71  68  90 SE3       30.05S
MONTICELLO*    PTSUNNY   76  70  82 S5        30.02F
LOGANSPORT*    LGT RAIN  77  63  61 S7        30.03F
ROCHESTER*     LGT RAIN  73  73 100 SE3       30.03F
WARSAW*        LGT RAIN  72  70  94 NE3       30.04F
ANGOLA*        MOSUNNY   72  64  78 E3        30.05F
FORT WAYNE     LGT RAIN  75  72  90 S6        30.06F
HUNTINGTON*    CLOUDY    75  66  72 CALM      30.05F
PERU/GRISSOM   PTSUNNY   79  69  72 SW6       30.03F
MARION*        FAIR      79  57  46 SW8       30.06F

$$
INZ028>050-292200-
CENTRAL INDIANA

CITY           SKY/WX    TMP DP  RH WIND       PRES   REMARKS
LAFAYETTE      LGT RAIN  76  70  82 S5        30.01F
KOKOMO*        FAIR      79  68  69 S7        30.04F
MUNCIE*        FAIR      79  67  66 SW6       30.06F
INDIANAPOLIS   PTSUNNY   81  68  64 SW9       30.04F

$$
MIZ043>046-050>051-056>058-064>065-071>073-077>080-292200-
SOUTHWEST LOWER MICHIGAN

CITY           SKY/WX    TMP DP  RH WIND       PRES   REMARKS
BATTLE CREEK   CLOUDY    70  65  84 CALM      30.07F
BENTON HARBOR  CLOUDY    70  66  87 E8        30.03F
COLDWATER*     PTSUNNY   71  66  85 CALM      30.07F
HILLSDALE*     PTSUNNY   73  68  85 CALM      30.09R
HOLLAND        CLOUDY    68  64  87 E5        30.06R
GRAND RAPIDS   CLOUDY    67  65  93 E8        30.06F
KALAMAZOO      CLOUDY    70  63  78 S3        30.07S
STURGIS*       LGT RAIN  70  68  94 E3        30.06S
THREE RIVERS*  LGT RAIN  70  67  91 E6        30.06F

$$
OHZ001>008-015>018-024>025-292200-
NORTHWEST OHIO

CITY           SKY/WX    TMP DP  RH WIND       PRES   REMARKS
WAUSEON*       FAIR      77  68  73 CALM      30.06F
DEFIANCE       LGT RAIN  77  67  71 SW5       30.06S
FINDLAY        FAIR      80  67  64 SW6       30.04F
TOLEDO EXPRESS LGT RAIN  77  66  68 NW5       30.05F
TOLEDO METCALF PTSUNNY   80  64  58 S5        30.06S
LIMA           FAIR      80  67  64 SW6       30.06F

$$
AND FOR LAKE MICHIGAN COASTAL AND OPEN LAKE BUOY OBSERVATIONS

STATION/POSITION TEMP    WIND        PRES    VSBY  WAVE
                 AIR SEA DIR/SP/G                  HT/PER
                 (F)     (DEG/KT/KT) (MB)    (MI)  (FT/S)
MICHIGAN CITY     72     150/  7/  9   N/A
BURNS HARBOR      74     190/ 10/ 12 1016.6F
SAINT JOSEPH      69     270/  1/  4 1016.9F
SOUTH LAKE BUOY   67 68  110/ 12/ 14 1016.4F         2/ 4
4 MI NW BRIDGMAN  70 70  170/  8/ 10   N/A           1
MICHIGAN CITY     72 71  150/  8/ 10   N/A           1

$$
&&


USA.gov is the U.S. government's official web portal to all federal, state and local government web resources and services.